Location: La Tine
(46.4708°N, 7.0525°E)
Time: 17:07:42
(UTC+00:00)

ATLAS 2AS CENTAUR R/B - Pass Details

Date: 18 September 2020
Orbit: 939 x 1273 km, 63.7° (Epoch: 27 October)

Event Time Altitude Azimuth Distance (km) Brightness Sun altitude
Rises 19:12:22 0° 172° (S) 4,174 5.5 -16.9°
Reaches altitude 10° 19:15:41 10° 159° (SSE) 3,237 4.8 -17.4°
Enters shadow 19:16:58 14° 152° (SSE) 2,927 4.5 -17.6°
Exits shadow 19:24:46 20° 78° (ENE) 2,576 4.2 -18.9°
Drops below altitude 10° 19:27:53 10° 58° (ENE) 3,258 4.9 -19.4°
Sets 19:31:12 0° 46° (NE) 4,207 5.6 -19.9°
